ISS (ZARYA) 1 25544U 98067A 26209.15252568 .00010831 00000+0 20282-3 0 9992 2 25544 51.6320 97.3682 0007093 345.6120 14.4666 15.49220842578109 POISK 1 36086U 09060A 26209.15252568 .00010831 00000+0 20282-3 0 9990 2 36086 51.6320 97.3682 0007093 345.6120 14.4666 15.49220842577785 CSS (TIANHE) 1 48274U 21035A 26209.09711337 .00021928 00000+0 28259-3 0 9996 2 48274 41.4686 73.6140 0001168 304.6809 55.3919 15.58497226299554 ISS (NAUKA) 1 49044U 21066A 26209.15252568 .00010831 00000+0 20282-3 0 9998 2 49044 51.6320 97.3682 0007093 345.6120 14.4666 15.49220842577828 FREGAT DEB 1 49271U 11037PF 26208.11060601 .00016256 00000+0 26920-1 0 9997 2 49271 51.6243 241.8262 0903966 9.5109 352.1659 12.43109824230019 CSS (WENTIAN) 1 53239U 22085A 26208.71262562 .00019844 00000+0 25636-3 0 9998 2 53239 41.4686 75.9459 0001214 307.6750 52.3978 15.58480055288236 CSS (MENGTIAN) 1 54216U 22143A 26209.09711337 .00021928 00000+0 28259-3 0 9990 2 54216 41.4686 73.6140 0001168 304.6809 55.3919 15.58497226299344 HRC MONOBLOCK CAMERA 1 66052U 98067XR 26208.94370516 .00119599 00000+0 60617-3 0 9998 2 66052 51.6198 68.8317 0001354 240.2362 119.8505 15.80651236 44437 SZ-21 MODULE 1 66515U 25246C 26208.84248344 .00058405 00000+0 30383-3 0 9998 2 66515 41.4726 53.4564 0009638 297.4076 62.5789 15.79971094 40167 DUPLEX 1 66906U 98067XS 26209.13632870 .00048618 00000+0 47724-3 0 9999 2 66906 51.6262 82.2296 0002158 1.8606 358.2397 15.65552570 37061 KNACKSAT-2 1 67683U 98067XZ 26208.91858738 .00060850 00000+0 64120-3 0 9991 2 67683 51.6280 89.0474 0007053 7.4159 352.6938 15.63640221 26641 CORAL 1 67684U 98067YA 26208.04584454 .01231714 91091-3 15390-2 0 9995 2 67684 51.6088 79.2644 0009437 263.3186 96.6753 16.07122788 26696 GXIBA-1 1 67685U 98067YB 26209.18824654 .00076288 00000+0 72708-3 0 9996 2 67685 51.6263 86.3338 0007668 4.2299 355.8760 15.66071402 26702 UITMSAT-2 1 67686U 98067YC 26208.07229562 .00111729 00000+0 85781-3 0 9996 2 67686 51.6246 89.3673 0003203 331.3101 28.7720 15.71208947 26564 LEOPARD 1 67687U 98067YD 26209.16913222 .00086912 00000+0 84799-3 0 9994 2 67687 51.6277 86.9832 0004400 335.0931 24.9851 15.65454186 26611 HMU-SAT2 1 67688U 98067YE 26208.94152630 .00096761 00000+0 82468-3 0 9992 2 67688 51.6259 86.1939 0003661 335.1076 24.9743 15.68753409 26603 CREW DRAGON 12 1 67796U 26031A 26209.15252568 .00010831 00000+0 20282-3 0 9999 2 67796 51.6320 97.3682 0007093 345.6120 14.4666 15.49220842577866 PROGRESS-MS 33 1 68319U 26058A 26209.15252568 .00010831 00000+0 20282-3 0 9990 2 68319 51.6320 97.3682 0007093 345.6120 14.4666 15.49220842577947 CYGNUS NG-24 1 68689U 26079A 26208.82999464 .00012208 00000+0 22756-3 0 9997 2 68689 51.6325 98.9640 0006981 344.4565 15.6209 15.49215570577935 PROGRESS-MS 34 1 68837U 26093A 26208.82999464 .00012208 00000+0 22756-3 0 9998 2 68837 51.6325 98.9640 0006981 344.4565 15.6209 15.49215570577974 TIANZHOU-10 1 69049U 26102A 26208.71262562 .00019844 00000+0 25636-3 0 9998 2 69049 41.4686 75.9459 0001214 307.6750 52.3978 15.58480055299188 SHENZHOU-23 (SZ-23) 1 69180U 26113A 26208.71262562 .00019844 00000+0 25636-3 0 9996 2 69180 41.4686 75.9459 0001214 307.6750 52.3978 15.58480055298183